COSMOS 1019

Satellite information

Favourite Embed

Satellite Type and Status

PAYLOADIN ORBIT

Key statistics

Satellite COSMOS 1019 at a glance.

Uptime

17261

Days in orbit

Revolutions

≈ 12.5

Per day

Orbit

LEO

Low Earth Orbit

Inclination

74.0

Latest

Satellite identification and parameters

Extended collection of information and parameters for COSMOS 1019.

Object identification

Identified? True

Debris? False

Object name: COSMOS 1019

International designator: 1978-056G

Object number (NORAD): 10936

Object ID (CCSDS): 10936

Country: COMMONWEALTH OF INDEPENDENT STATES (CIS)

Current information (Y/N): Y

RCS size: MEDIUM

Orbital parameters

Period: 115.002 minutes

Inclination: 74.0232 deg

SMA: 7833.628 km

Apoapsis: 1487.532 km

Periapsis: 1423.455 km

RAAN: 246.8897 deg

Eccentricy: 0.00408986

Argument of periapsis: 8.355 deg

Mean anomaly: 104.7332 deg

Mean motion: 12.52155635 rev/day

Mean motion (dot): -0.00000021 rev/day2

B* drag term: -0.000032787682 1/REarth

Two-line elements (TLE)

Creation date: Sept. 8, 2025, 6:18 p.m.

Reference frame: TEME

Reference center: EARTH

Epoch: Sept. 8, 2025, 10:20 a.m. UTC

TLE line 0: 0 COSMOS 1019

TLE line 1: 1 10936U 78056G 25251.43103640 -.00000021 00000-0 -32788-4 0 9998

TLE line 2: 2 10936 74.0232 246.8897 0040899 8.3550 104.7332 12.52155635159969

Live tracking on map

Real-time ground track for satellite COSMOS 1019.

In-orbit conjunctions

There are no conjunctions computed for COSMOS 1019, at the moment. Check back to stay up to date, as we update our databases every day.

Go to all conjunctions

Associated space launch

Military communications satellites

COSMOS 1019 was lifted into orbit during the mission ‘Kosmos-3M | Strela-1M 145-152’, on board a Kosmos-3M space rocket.

The launch took place on June 7, 1978, 10 p.m. from 132/1 (132L).

For more information about the launch, click the button.

Launch to space Kosmos-3M | Strela-1M 145-152
Kosmos-3M | Strela-1M 145-152

Agency: N/A

Status: Launch Successful

Launch date: June 7, 1978, 10 p.m. UTC

Rocket: Kosmos-3M

Launch pad: 132/1 (132L)

Location: Plesetsk Cosmodrome, Russian Federation

...

Latest news about this satellite

There are no fresh news available about this satellite. Check back as we update our databases every day.


Newsletter sign-up

Weekly statistics, charts and insights to help you stay on top of the space industry.